Year,Month,Day,Hour,Minute,Value (Times are PST for temperature in C)
2012,06,28,00,00,11.60
2012,06,28,00,01,11.60
2012,06,28,00,02,11.60
2012,06,28,00,03,11.60
2012,06,28,00,04,11.60
2012,06,28,00,05,11.60
2012,06,28,00,06,11.60
2012,06,28,00,07,11.60
2012,06,28,00,08,11.50
2012,06,28,00,09,11.50
2012,06,28,00,10,11.50
2012,06,28,00,11,11.50
2012,06,28,00,12,11.50
2012,06,28,00,13,11.50
2012,06,28,00,14,11.50
2012,06,28,00,15,11.50
2012,06,28,00,16,11.40
2012,06,28,00,17,11.40
2012,06,28,00,18,11.40
2012,06,28,00,19,11.40
2012,06,28,00,20,11.40
2012,06,28,00,21,11.40
2012,06,28,00,22,11.40
2012,06,28,00,23,11.40
2012,06,28,00,24,11.40
2012,06,28,00,25,11.40
2012,06,28,00,26,11.40
2012,06,28,00,27,11.40
2012,06,28,00,28,11.40
2012,06,28,00,29,11.30
2012,06,28,00,30,11.30
2012,06,28,00,31,11.30
2012,06,28,00,32,11.30
2012,06,28,00,33,11.30
2012,06,28,00,34,11.30
2012,06,28,00,35,11.20
2012,06,28,00,36,11.20
2012,06,28,00,37,11.20
2012,06,28,00,38,11.20
2012,06,28,00,39,11.20
2012,06,28,00,40,11.20
2012,06,28,00,41,11.20
2012,06,28,00,42,11.20
2012,06,28,00,43,11.20
2012,06,28,00,44,11.20
2012,06,28,00,45,11.20
2012,06,28,00,46,11.20
2012,06,28,00,47,11.20
2012,06,28,00,48,11.20
2012,06,28,00,49,11.20
2012,06,28,00,50,11.10
2012,06,28,00,51,11.10
2012,06,28,00,52,11.10
2012,06,28,00,53,11.10
2012,06,28,00,54,11.00
2012,06,28,00,55,11.00
2012,06,28,00,56,10.90
2012,06,28,00,57,10.90
2012,06,28,00,58,10.90
2012,06,28,00,59,10.90
2012,06,28,01,00,10.90
2012,06,28,01,01,10.90
2012,06,28,01,02,10.90
2012,06,28,01,03,10.90
2012,06,28,01,04,10.80
2012,06,28,01,05,10.80
2012,06,28,01,06,10.80
2012,06,28,01,07,10.80
2012,06,28,01,08,10.80
2012,06,28,01,09,10.80
2012,06,28,01,10,10.80
2012,06,28,01,11,10.80
2012,06,28,01,12,10.80
2012,06,28,01,13,10.70
2012,06,28,01,14,10.70
2012,06,28,01,15,10.70
2012,06,28,01,16,10.70
2012,06,28,01,17,10.70
2012,06,28,01,18,10.70
2012,06,28,01,19,10.70
2012,06,28,01,20,10.70
2012,06,28,01,21,10.70
2012,06,28,01,22,10.70
2012,06,28,01,23,10.70
2012,06,28,01,24,10.70
2012,06,28,01,25,10.70
2012,06,28,01,26,10.70
2012,06,28,01,27,10.70
2012,06,28,01,28,10.70
2012,06,28,01,29,10.70
2012,06,28,01,30,10.70
2012,06,28,01,31,10.70
2012,06,28,01,32,10.70
2012,06,28,01,33,10.70
2012,06,28,01,34,10.70
2012,06,28,01,35,10.70
2012,06,28,01,36,10.70
2012,06,28,01,37,10.70
2012,06,28,01,38,10.70
2012,06,28,01,39,10.70
2012,06,28,01,40,10.70
2012,06,28,01,41,10.70
2012,06,28,01,42,10.70
2012,06,28,01,43,10.70
2012,06,28,01,44,10.60
2012,06,28,01,45,10.60
2012,06,28,01,46,10.60
2012,06,28,01,47,10.60
2012,06,28,01,48,10.60
2012,06,28,01,49,10.60
2012,06,28,01,50,10.50
2012,06,28,01,51,10.50
2012,06,28,01,52,10.50
2012,06,28,01,53,10.60
2012,06,28,01,54,10.60
2012,06,28,01,55,10.60
2012,06,28,01,56,10.60
2012,06,28,01,57,10.60
2012,06,28,01,58,10.60
2012,06,28,01,59,10.60
2012,06,28,02,00,10.60
2012,06,28,02,01,10.60
2012,06,28,02,02,10.60
2012,06,28,02,03,10.60
2012,06,28,02,04,10.60
2012,06,28,02,05,10.60
2012,06,28,02,06,10.60
2012,06,28,02,07,10.60
2012,06,28,02,08,10.60
2012,06,28,02,09,10.60
2012,06,28,02,10,10.60
2012,06,28,02,11,10.50
2012,06,28,02,12,10.50
2012,06,28,02,13,10.50
2012,06,28,02,14,10.50
2012,06,28,02,15,10.50
2012,06,28,02,16,10.50
2012,06,28,02,17,10.50
2012,06,28,02,18,10.50
2012,06,28,02,19,10.50
2012,06,28,02,20,10.50
2012,06,28,02,21,10.50
2012,06,28,02,22,10.60
2012,06,28,02,23,10.60
2012,06,28,02,24,10.60
2012,06,28,02,25,10.60
2012,06,28,02,26,10.60
2012,06,28,02,27,10.60
2012,06,28,02,28,10.60
2012,06,28,02,29,10.60
2012,06,28,02,30,10.60
2012,06,28,02,31,10.60
2012,06,28,02,32,10.60
2012,06,28,02,33,10.60
2012,06,28,02,34,10.60
2012,06,28,02,35,10.60
2012,06,28,02,36,10.60
2012,06,28,02,37,10.60
2012,06,28,02,38,10.60
2012,06,28,02,39,10.60
2012,06,28,02,40,10.60
2012,06,28,02,41,10.60
2012,06,28,02,42,10.60
2012,06,28,02,43,10.60
2012,06,28,02,44,10.60
2012,06,28,02,45,10.60
2012,06,28,02,46,10.60
2012,06,28,02,47,10.60
2012,06,28,02,48,10.60
2012,06,28,02,49,10.60
2012,06,28,02,50,10.70
2012,06,28,02,51,10.70
2012,06,28,02,52,10.70
2012,06,28,02,53,10.70
2012,06,28,02,54,10.70
2012,06,28,02,55,10.70
2012,06,28,02,56,10.70
2012,06,28,02,57,10.60
2012,06,28,02,58,10.60
2012,06,28,02,59,10.60
2012,06,28,03,00,10.60
2012,06,28,03,01,10.60
2012,06,28,03,02,10.60
2012,06,28,03,03,10.50
2012,06,28,03,04,10.50
2012,06,28,03,05,10.50
2012,06,28,03,06,10.50
2012,06,28,03,07,10.50
2012,06,28,03,08,10.50
2012,06,28,03,09,10.50
2012,06,28,03,10,10.50
2012,06,28,03,11,10.50
2012,06,28,03,12,10.50
2012,06,28,03,13,10.50
2012,06,28,03,14,10.50
2012,06,28,03,15,10.40
2012,06,28,03,16,10.50
2012,06,28,03,17,10.40
2012,06,28,03,18,10.40
2012,06,28,03,19,10.40
2012,06,28,03,20,10.40
2012,06,28,03,21,10.40
2012,06,28,03,22,10.30
2012,06,28,03,23,10.30
2012,06,28,03,24,10.30
2012,06,28,03,25,10.30
2012,06,28,03,26,10.30
2012,06,28,03,27,10.30
2012,06,28,03,28,10.20
2012,06,28,03,29,10.20
2012,06,28,03,30,10.20
2012,06,28,03,31,10.20
2012,06,28,03,32,10.20
2012,06,28,03,33,10.20
2012,06,28,03,34,10.20
2012,06,28,03,35,10.20
2012,06,28,03,36,10.20
2012,06,28,03,37,10.10
2012,06,28,03,38,10.10
2012,06,28,03,39,10.10
2012,06,28,03,40,10.10
2012,06,28,03,41,10.10
2012,06,28,03,42,10.10
2012,06,28,03,43,10.10
2012,06,28,03,44,10.10
2012,06,28,03,45,10.10
2012,06,28,03,46,10.10
2012,06,28,03,47,10.10
2012,06,28,03,48,10.10
2012,06,28,03,49,10.10
2012,06,28,03,50,10.10
2012,06,28,03,51,10.10
2012,06,28,03,52,10.10
2012,06,28,03,53,10.10
2012,06,28,03,54,10.10
2012,06,28,03,55,10.10
2012,06,28,03,56,10.10
2012,06,28,03,57,10.10
2012,06,28,03,58,10.10
2012,06,28,03,59,10.10
2012,06,28,04,00,10.10
2012,06,28,04,01,10.10
2012,06,28,04,02,10.10
2012,06,28,04,03,10.10
2012,06,28,04,04,10.10
2012,06,28,04,05,10.10
2012,06,28,04,06,10.10
2012,06,28,04,07,10.10
2012,06,28,04,08,10.10
2012,06,28,04,09,10.10
2012,06,28,04,10,10.10
2012,06,28,04,11,10.10
2012,06,28,04,12,10.10
2012,06,28,04,13,10.10
2012,06,28,04,14,10.10
2012,06,28,04,15,10.10
2012,06,28,04,16,10.10
2012,06,28,04,17,10.10
2012,06,28,04,18,10.10
2012,06,28,04,19,10.10
2012,06,28,04,20,10.10
2012,06,28,04,21,10.10
2012,06,28,04,22,10.10
2012,06,28,04,23,10.10
2012,06,28,04,24,10.00
2012,06,28,04,25,10.10
2012,06,28,04,26,10.00
2012,06,28,04,27,10.00
2012,06,28,04,28,10.10
2012,06,28,04,29,10.10
2012,06,28,04,30,10.10
2012,06,28,04,31,10.10
2012,06,28,04,32,10.10
2012,06,28,04,33,10.10
2012,06,28,04,34,10.10
2012,06,28,04,35,10.10
2012,06,28,04,36,10.10
2012,06,28,04,37,10.10
2012,06,28,04,38,10.10
2012,06,28,04,39,10.10
2012,06,28,04,40,10.10
2012,06,28,04,41,10.10
2012,06,28,04,42,10.10
2012,06,28,04,43,10.10
2012,06,28,04,44,10.10
2012,06,28,04,45,10.00
2012,06,28,04,46,10.00
2012,06,28,04,47,10.00
2012,06,28,04,48,10.00
2012,06,28,04,49,10.00
2012,06,28,04,50,10.00
2012,06,28,04,51,10.00
2012,06,28,04,52,10.00
2012,06,28,04,53,10.00
2012,06,28,04,54,10.00
2012,06,28,04,55,10.00
2012,06,28,04,56,10.00
2012,06,28,04,57,10.00
2012,06,28,04,58,10.00
2012,06,28,04,59,10.00
2012,06,28,05,00,10.00
2012,06,28,05,01,10.00
2012,06,28,05,02,10.00
2012,06,28,05,03,10.00
2012,06,28,05,04,10.00
2012,06,28,05,05,10.00
2012,06,28,05,06,10.00
2012,06,28,05,07,10.00
2012,06,28,05,08,10.00
2012,06,28,05,09,10.00
2012,06,28,05,10,10.00
2012,06,28,05,11,10.00
2012,06,28,05,12,10.00
2012,06,28,05,13,10.00
2012,06,28,05,14,10.00
2012,06,28,05,15,10.00
2012,06,28,05,16,10.00
2012,06,28,05,17,10.00
2012,06,28,05,18,10.00
2012,06,28,05,19,10.00
2012,06,28,05,20,10.00
2012,06,28,05,21,10.00
2012,06,28,05,22,10.00
2012,06,28,05,23,10.00
2012,06,28,05,24,10.00
2012,06,28,05,25,10.00
2012,06,28,05,26,10.00
2012,06,28,05,27,10.00
2012,06,28,05,28,10.00
2012,06,28,05,29,10.00
2012,06,28,05,30,10.00
2012,06,28,05,31,10.00
2012,06,28,05,32,10.00
2012,06,28,05,33,10.00
2012,06,28,05,34,10.00
2012,06,28,05,35,10.00
2012,06,28,05,36,10.00
2012,06,28,05,37,10.00
2012,06,28,05,38,10.00
2012,06,28,05,39,10.00
2012,06,28,05,40,10.00
2012,06,28,05,41,10.00
2012,06,28,05,42,10.00
2012,06,28,05,43,10.00
2012,06,28,05,44,10.00
2012,06,28,05,45,10.00
2012,06,28,05,46,10.00
2012,06,28,05,47,10.00
2012,06,28,05,48,10.00
2012,06,28,05,49,10.00
2012,06,28,05,50,10.00
2012,06,28,05,51,10.00
2012,06,28,05,52,10.00
2012,06,28,05,53,10.00
2012,06,28,05,54,10.00
2012,06,28,05,55,10.00
2012,06,28,05,56,10.00
2012,06,28,05,57,10.00
2012,06,28,05,58,10.00
2012,06,28,05,59,10.00
2012,06,28,06,00,10.00
2012,06,28,06,01,9.90
2012,06,28,06,02,9.90
2012,06,28,06,03,9.90
2012,06,28,06,04,9.90
2012,06,28,06,05,9.90
2012,06,28,06,06,9.90
2012,06,28,06,07,9.90
2012,06,28,06,08,9.90
2012,06,28,06,09,9.90
2012,06,28,06,10,9.90
2012,06,28,06,11,9.90
2012,06,28,06,12,9.90
2012,06,28,06,13,9.90
2012,06,28,06,14,9.90
2012,06,28,06,15,9.90
2012,06,28,06,16,9.90
2012,06,28,06,17,9.80
2012,06,28,06,18,9.90
2012,06,28,06,19,9.90
2012,06,28,06,20,9.90
2012,06,28,06,21,9.80
2012,06,28,06,22,9.90
2012,06,28,06,23,9.90
2012,06,28,06,24,9.90
2012,06,28,06,25,9.90
2012,06,28,06,26,9.90
2012,06,28,06,27,9.90
2012,06,28,06,28,9.90
2012,06,28,06,29,9.90
2012,06,28,06,30,9.90
2012,06,28,06,31,10.00
2012,06,28,06,32,10.00
2012,06,28,06,33,10.00
2012,06,28,06,34,10.10
2012,06,28,06,35,10.10
2012,06,28,06,36,10.10
2012,06,28,06,37,10.10
2012,06,28,06,38,10.20
2012,06,28,06,39,10.20
2012,06,28,06,40,10.30
2012,06,28,06,41,10.30
2012,06,28,06,42,10.40
2012,06,28,06,43,10.40
2012,06,28,06,44,10.40
2012,06,28,06,45,10.40
2012,06,28,06,46,10.50
2012,06,28,06,47,10.50
2012,06,28,06,48,10.50
2012,06,28,06,49,10.50
2012,06,28,06,50,10.50
2012,06,28,06,51,10.50
2012,06,28,06,52,10.50
2012,06,28,06,53,10.50
2012,06,28,06,54,10.50
2012,06,28,06,55,10.50
2012,06,28,06,56,10.50
2012,06,28,06,57,10.50
2012,06,28,06,58,10.60
2012,06,28,06,59,10.60
2012,06,28,07,00,10.60
2012,06,28,07,01,10.60
2012,06,28,07,02,10.60
2012,06,28,07,03,10.60
2012,06,28,07,04,10.70
2012,06,28,07,05,10.70
2012,06,28,07,06,10.70
2012,06,28,07,07,10.80
2012,06,28,07,08,10.80
2012,06,28,07,09,10.80
2012,06,28,07,10,10.80
2012,06,28,07,11,10.80
2012,06,28,07,12,10.90
2012,06,28,07,13,10.90
2012,06,28,07,14,10.90
2012,06,28,07,15,11.00
2012,06,28,07,16,11.00
2012,06,28,07,17,11.10
2012,06,28,07,18,11.10
2012,06,28,07,19,11.10
2012,06,28,07,20,11.10
2012,06,28,07,21,11.20
2012,06,28,07,22,11.20
2012,06,28,07,23,11.20
2012,06,28,07,24,11.30
2012,06,28,07,25,11.30
2012,06,28,07,26,11.30
2012,06,28,07,27,11.30
2012,06,28,07,28,11.30
2012,06,28,07,29,11.40
2012,06,28,07,30,11.40
2012,06,28,07,31,11.50
2012,06,28,07,32,11.50
2012,06,28,07,33,11.50
2012,06,28,07,34,11.60
2012,06,28,07,35,11.60
2012,06,28,07,36,11.60
2012,06,28,07,37,11.70
2012,06,28,07,38,11.70
2012,06,28,07,39,11.70
2012,06,28,07,40,11.80
2012,06,28,07,41,11.80
2012,06,28,07,42,11.80
2012,06,28,07,43,11.90
2012,06,28,07,44,11.90
2012,06,28,07,45,11.90
2012,06,28,07,46,11.90
2012,06,28,07,47,12.00
2012,06,28,07,48,12.00
2012,06,28,07,49,12.10
2012,06,28,07,50,12.10
2012,06,28,07,51,12.10
2012,06,28,07,52,12.20
2012,06,28,07,53,12.20
2012,06,28,07,54,12.20
2012,06,28,07,55,12.30
2012,06,28,07,56,12.30
2012,06,28,07,57,12.30
2012,06,28,07,58,12.40
2012,06,28,07,59,12.40
2012,06,28,08,00,12.40
2012,06,28,08,01,12.50
2012,06,28,08,02,12.50
2012,06,28,08,03,12.50
2012,06,28,08,04,12.50
2012,06,28,08,05,12.60
2012,06,28,08,06,12.60
2012,06,28,08,07,12.60
2012,06,28,08,08,12.60
2012,06,28,08,09,12.60
2012,06,28,08,10,12.60
2012,06,28,08,11,12.60
2012,06,28,08,12,12.70
2012,06,28,08,13,12.70
2012,06,28,08,14,12.70
2012,06,28,08,15,12.70
2012,06,28,08,16,12.70
2012,06,28,08,17,12.70
2012,06,28,08,18,12.80
2012,06,28,08,19,12.80
2012,06,28,08,20,12.90
2012,06,28,08,21,12.90
2012,06,28,08,22,12.90
2012,06,28,08,23,12.90
2012,06,28,08,24,13.00
2012,06,28,08,25,13.00
2012,06,28,08,26,13.10
2012,06,28,08,27,13.10
2012,06,28,08,28,13.10
2012,06,28,08,29,13.10
2012,06,28,08,30,13.10
2012,06,28,08,31,13.20
2012,06,28,08,32,13.20
2012,06,28,08,33,13.20
2012,06,28,08,34,13.20
2012,06,28,08,35,13.20
2012,06,28,08,36,13.30
2012,06,28,08,37,13.30
2012,06,28,08,38,13.30
2012,06,28,08,39,13.40
2012,06,28,08,40,13.40
2012,06,28,08,41,13.40
2012,06,28,08,42,13.50
2012,06,28,08,43,13.50
2012,06,28,08,44,13.60
2012,06,28,08,45,13.60
2012,06,28,08,46,13.70
2012,06,28,08,47,13.70
2012,06,28,08,48,13.70
2012,06,28,08,49,13.80
2012,06,28,08,50,13.80
2012,06,28,08,51,13.80
2012,06,28,08,52,13.80
2012,06,28,08,53,13.90
2012,06,28,08,54,13.90
2012,06,28,08,55,13.90
2012,06,28,08,56,13.90
2012,06,28,08,57,14.00
2012,06,28,08,58,14.00
2012,06,28,08,59,14.10
2012,06,28,09,00,14.10
2012,06,28,09,01,14.10
2012,06,28,09,02,14.20
2012,06,28,09,03,14.20
2012,06,28,09,04,14.20
2012,06,28,09,05,14.30
2012,06,28,09,06,14.30
2012,06,28,09,07,14.30
2012,06,28,09,08,14.40
2012,06,28,09,09,14.40
2012,06,28,09,10,14.50
2012,06,28,09,11,14.60
2012,06,28,09,12,14.60
2012,06,28,09,13,14.70
2012,06,28,09,14,14.80
2012,06,28,09,15,14.80
2012,06,28,09,16,15.00
2012,06,28,09,17,15.00
2012,06,28,09,18,15.00
2012,06,28,09,19,15.00
2012,06,28,09,20,15.00
2012,06,28,09,21,15.00
2012,06,28,09,22,15.00
2012,06,28,09,23,15.00
2012,06,28,09,24,15.00
2012,06,28,09,25,15.00
2012,06,28,09,26,15.10
2012,06,28,09,27,15.20
2012,06,28,09,28,15.20
2012,06,28,09,29,15.30
2012,06,28,09,30,15.40
2012,06,28,09,31,15.50
2012,06,28,09,32,15.60
2012,06,28,09,33,15.70
2012,06,28,09,34,15.80
2012,06,28,09,35,15.80
2012,06,28,09,36,15.90
2012,06,28,09,37,16.00
2012,06,28,09,38,16.10
2012,06,28,09,39,16.10
2012,06,28,09,40,16.20
2012,06,28,09,41,16.30
2012,06,28,09,42,16.40
2012,06,28,09,43,16.50
2012,06,28,09,44,16.60
2012,06,28,09,45,16.70
2012,06,28,09,46,16.80
2012,06,28,09,47,16.90
2012,06,28,09,48,17.00
2012,06,28,09,49,17.10
2012,06,28,09,50,17.20
2012,06,28,09,51,17.30
2012,06,28,09,52,17.40
2012,06,28,09,53,17.50
2012,06,28,09,54,17.60
2012,06,28,09,55,17.60
2012,06,28,09,56,17.70
2012,06,28,09,57,17.70
2012,06,28,09,58,17.70
2012,06,28,09,59,17.80
2012,06,28,10,00,17.80
2012,06,28,10,01,17.80
2012,06,28,10,02,17.90
2012,06,28,10,03,17.90
2012,06,28,10,04,18.00
2012,06,28,10,05,18.00
2012,06,28,10,06,18.10
2012,06,28,10,07,18.20
2012,06,28,10,08,18.20
2012,06,28,10,09,18.20
2012,06,28,10,10,18.20
2012,06,28,10,11,18.30
2012,06,28,10,12,18.30
2012,06,28,10,13,18.30
2012,06,28,10,14,18.30
2012,06,28,10,15,18.40
2012,06,28,10,16,18.40
2012,06,28,10,17,18.50
2012,06,28,10,18,18.60
2012,06,28,10,19,18.60
2012,06,28,10,20,18.70
2012,06,28,10,21,18.70
2012,06,28,10,22,18.80
2012,06,28,10,23,18.90
2012,06,28,10,24,18.90
2012,06,28,10,25,18.90
2012,06,28,10,26,19.00
2012,06,28,10,27,19.00
2012,06,28,10,28,19.10
2012,06,28,10,29,19.10
2012,06,28,10,30,19.10
2012,06,28,10,31,19.10
2012,06,28,10,32,19.20
2012,06,28,10,33,19.20
2012,06,28,10,34,19.20
2012,06,28,10,35,19.20
2012,06,28,10,36,19.30
2012,06,28,10,37,19.30
2012,06,28,10,38,19.40
2012,06,28,10,39,19.40
2012,06,28,10,40,19.50
2012,06,28,10,41,19.50
2012,06,28,10,42,19.50
2012,06,28,10,43,19.60
2012,06,28,10,44,19.60
2012,06,28,10,45,19.50
2012,06,28,10,46,19.60
2012,06,28,10,47,19.60
2012,06,28,10,48,19.50
2012,06,28,10,49,19.50
2012,06,28,10,50,19.50
2012,06,28,10,51,19.50
2012,06,28,10,52,19.50
2012,06,28,10,53,19.50
2012,06,28,10,54,19.50
2012,06,28,10,55,19.50
2012,06,28,10,56,19.40
2012,06,28,10,57,19.40
2012,06,28,10,58,19.40
2012,06,28,10,59,19.40
2012,06,28,11,00,19.40
2012,06,28,11,01,19.30
2012,06,28,11,02,19.30
2012,06,28,11,03,19.20
2012,06,28,11,04,19.20
2012,06,28,11,05,19.10
2012,06,28,11,06,19.10
2012,06,28,11,07,19.00
2012,06,28,11,08,19.00
2012,06,28,11,09,18.90
2012,06,28,11,10,18.90
2012,06,28,11,11,18.90
2012,06,28,11,12,18.90
2012,06,28,11,13,18.90
2012,06,28,11,14,19.00
2012,06,28,11,15,19.00
2012,06,28,11,16,19.00
2012,06,28,11,17,18.90
2012,06,28,11,18,18.90
2012,06,28,11,19,18.80
2012,06,28,11,20,18.70
2012,06,28,11,21,18.60
2012,06,28,11,22,18.50
2012,06,28,11,23,18.50
2012,06,28,11,24,18.50
2012,06,28,11,25,18.50
2012,06,28,11,26,18.60
2012,06,28,11,27,18.60
2012,06,28,11,28,18.60
2012,06,28,11,29,18.70
2012,06,28,11,30,18.70
2012,06,28,11,31,18.80
2012,06,28,11,32,18.80
2012,06,28,11,33,18.90
2012,06,28,11,34,18.90
2012,06,28,11,35,19.00
2012,06,28,11,36,19.10
2012,06,28,11,37,19.10
2012,06,28,11,38,19.20
2012,06,28,11,39,19.20
2012,06,28,11,40,19.20
2012,06,28,11,41,19.20
2012,06,28,11,42,19.20
2012,06,28,11,43,19.30
2012,06,28,11,44,19.30
2012,06,28,11,45,19.30
2012,06,28,11,46,19.30
2012,06,28,11,47,19.20
2012,06,28,11,48,19.20
2012,06,28,11,49,19.20
2012,06,28,11,50,19.20
2012,06,28,11,51,19.20
2012,06,28,11,52,19.10
2012,06,28,11,53,19.10
2012,06,28,11,54,19.00
2012,06,28,11,55,18.90
2012,06,28,11,56,18.90
2012,06,28,11,57,18.90
2012,06,28,11,58,18.90
2012,06,28,11,59,18.90
2012,06,28,12,00,18.80
2012,06,28,12,01,18.80
2012,06,28,12,02,18.70
2012,06,28,12,03,18.70
2012,06,28,12,04,18.50
2012,06,28,12,05,18.40
2012,06,28,12,06,18.30
2012,06,28,12,07,18.20
2012,06,28,12,08,18.20
2012,06,28,12,09,18.10
2012,06,28,12,10,18.10
2012,06,28,12,11,18.00
2012,06,28,12,12,18.00
2012,06,28,12,13,17.90
2012,06,28,12,14,17.90
2012,06,28,12,15,17.90
2012,06,28,12,16,17.90
2012,06,28,12,17,18.00
2012,06,28,12,18,18.00
2012,06,28,12,19,18.00
2012,06,28,12,20,18.10
2012,06,28,12,21,18.10
2012,06,28,12,22,18.10
2012,06,28,12,23,18.10
2012,06,28,12,24,18.10
2012,06,28,12,25,18.00
2012,06,28,12,26,18.00
2012,06,28,12,27,18.00
2012,06,28,12,28,18.00
2012,06,28,12,29,18.00
2012,06,28,12,30,18.00
2012,06,28,12,31,18.00
2012,06,28,12,32,18.00
2012,06,28,12,33,18.10
2012,06,28,12,34,18.10
2012,06,28,12,35,18.10
2012,06,28,12,36,18.10
2012,06,28,12,37,18.10
2012,06,28,12,38,18.10
2012,06,28,12,39,18.10
2012,06,28,12,40,18.10
2012,06,28,12,41,18.20
2012,06,28,12,42,18.20
2012,06,28,12,43,18.20
2012,06,28,12,44,18.20
2012,06,28,12,45,18.20
2012,06,28,12,46,18.20
2012,06,28,12,47,18.20
2012,06,28,12,48,18.20
2012,06,28,12,49,18.20
2012,06,28,12,50,18.20
2012,06,28,12,51,18.30
2012,06,28,12,52,18.30
2012,06,28,12,53,18.30
2012,06,28,12,54,18.30
2012,06,28,12,55,18.30
2012,06,28,12,56,18.30
2012,06,28,12,57,18.30
2012,06,28,12,58,18.30
2012,06,28,12,59,18.30
2012,06,28,13,00,18.30
2012,06,28,13,01,18.30
2012,06,28,13,02,18.30
2012,06,28,13,03,18.20
2012,06,28,13,04,18.20
2012,06,28,13,05,18.20
2012,06,28,13,06,18.20
2012,06,28,13,07,18.20
2012,06,28,13,08,18.20
2012,06,28,13,09,18.20
2012,06,28,13,10,18.20
2012,06,28,13,11,18.20
2012,06,28,13,12,18.20
2012,06,28,13,13,18.20
2012,06,28,13,14,18.20
2012,06,28,13,15,18.20
2012,06,28,13,16,18.20
2012,06,28,13,17,18.30
2012,06,28,13,18,18.30
2012,06,28,13,19,18.30
2012,06,28,13,20,18.40
2012,06,28,13,21,18.40
2012,06,28,13,22,18.40
2012,06,28,13,23,18.40
2012,06,28,13,24,18.40
2012,06,28,13,25,18.30
2012,06,28,13,26,18.30
2012,06,28,13,27,18.30
2012,06,28,13,28,18.30
2012,06,28,13,29,18.30
2012,06,28,13,30,18.20
2012,06,28,13,31,18.20
2012,06,28,13,32,18.10
2012,06,28,13,33,18.10
2012,06,28,13,34,18.10
2012,06,28,13,35,18.10
2012,06,28,13,36,18.10
2012,06,28,13,37,18.10
2012,06,28,13,38,18.10
2012,06,28,13,39,18.10
2012,06,28,13,40,18.20
2012,06,28,13,41,18.20
2012,06,28,13,42,18.20
2012,06,28,13,43,18.20
2012,06,28,13,44,18.20
2012,06,28,13,45,18.30
2012,06,28,13,46,18.30
2012,06,28,13,47,18.30
2012,06,28,13,48,18.30
2012,06,28,13,49,18.30
2012,06,28,13,50,18.30
2012,06,28,13,51,18.30
2012,06,28,13,52,18.30
2012,06,28,13,53,18.40
2012,06,28,13,54,18.40
2012,06,28,13,55,18.40
2012,06,28,13,56,18.40
2012,06,28,13,57,18.40
2012,06,28,13,58,18.50
2012,06,28,13,59,18.50
2012,06,28,14,00,18.50
2012,06,28,14,01,18.60
2012,06,28,14,02,18.60
2012,06,28,14,03,18.60
2012,06,28,14,04,18.60
2012,06,28,14,05,18.60
2012,06,28,14,06,18.60
2012,06,28,14,07,18.70
2012,06,28,14,08,18.70
2012,06,28,14,09,18.70
2012,06,28,14,10,18.70
2012,06,28,14,11,18.70
2012,06,28,14,12,18.70
2012,06,28,14,13,18.70
2012,06,28,14,14,18.70
2012,06,28,14,15,18.80
2012,06,28,14,16,18.80
2012,06,28,14,17,18.80
2012,06,28,14,18,18.80
2012,06,28,14,19,18.80
2012,06,28,14,20,18.90
2012,06,28,14,21,18.90
2012,06,28,14,22,18.90
2012,06,28,14,23,18.90
2012,06,28,14,24,18.90
2012,06,28,14,25,18.90
2012,06,28,14,26,18.90
2012,06,28,14,27,18.90
2012,06,28,14,28,18.90
2012,06,28,14,29,18.90
2012,06,28,14,30,18.90
2012,06,28,14,31,18.90
2012,06,28,14,32,18.90
2012,06,28,14,33,18.90
2012,06,28,14,34,18.90
2012,06,28,14,35,18.80
2012,06,28,14,36,18.80
2012,06,28,14,37,18.80
2012,06,28,14,38,18.80
2012,06,28,14,39,18.80
2012,06,28,14,40,18.70
2012,06,28,14,41,18.70
2012,06,28,14,42,18.70
2012,06,28,14,43,18.70
2012,06,28,14,44,18.70
2012,06,28,14,45,18.60
2012,06,28,14,46,18.60
2012,06,28,14,47,18.50
2012,06,28,14,48,18.50
2012,06,28,14,49,18.40
2012,06,28,14,50,18.40
2012,06,28,14,51,18.30
2012,06,28,14,52,18.30
2012,06,28,14,53,18.20
2012,06,28,14,54,18.20
2012,06,28,14,55,18.20
2012,06,28,14,56,18.10
2012,06,28,14,57,18.10
2012,06,28,14,58,18.10
2012,06,28,14,59,18.10
2012,06,28,15,00,18.10
2012,06,28,15,01,18.00
2012,06,28,15,02,18.00
2012,06,28,15,03,18.00
2012,06,28,15,04,18.00
2012,06,28,15,05,18.00
2012,06,28,15,06,18.00
2012,06,28,15,07,18.00
2012,06,28,15,08,18.00
2012,06,28,15,09,18.00
2012,06,28,15,10,18.00
2012,06,28,15,11,18.00
2012,06,28,15,12,18.00
2012,06,28,15,13,18.10
2012,06,28,15,14,18.00
2012,06,28,15,15,18.00
2012,06,28,15,16,18.00
2012,06,28,15,17,17.90
2012,06,28,15,18,17.90
2012,06,28,15,19,17.90
2012,06,28,15,20,17.90
2012,06,28,15,21,17.80
2012,06,28,15,22,17.80
2012,06,28,15,23,17.80
2012,06,28,15,24,17.80
2012,06,28,15,25,17.80
2012,06,28,15,26,17.80
2012,06,28,15,27,17.70
2012,06,28,15,28,17.70
2012,06,28,15,29,17.70
2012,06,28,15,30,17.60
2012,06,28,15,31,17.60
2012,06,28,15,32,17.60
2012,06,28,15,33,17.60
2012,06,28,15,34,17.50
2012,06,28,15,35,17.40
2012,06,28,15,36,17.30
2012,06,28,15,37,17.30
2012,06,28,15,38,17.20
2012,06,28,15,39,17.00
2012,06,28,15,40,16.90
2012,06,28,15,41,16.80
2012,06,28,15,42,16.70
2012,06,28,15,43,16.60
2012,06,28,15,44,16.50
2012,06,28,15,45,16.40
2012,06,28,15,46,16.30
2012,06,28,15,47,16.20
2012,06,28,15,48,16.20
2012,06,28,15,49,16.10
2012,06,28,15,50,16.00
2012,06,28,15,51,15.90
2012,06,28,15,52,15.80
2012,06,28,15,53,15.70
2012,06,28,15,54,15.60
2012,06,28,15,55,15.60
2012,06,28,15,56,15.50
2012,06,28,15,57,15.50
2012,06,28,15,58,15.40
2012,06,28,15,59,15.40
2012,06,28,16,00,15.30
2012,06,28,16,01,15.30
2012,06,28,16,02,15.30
2012,06,28,16,03,15.20
2012,06,28,16,04,15.20
2012,06,28,16,05,15.20
2012,06,28,16,06,15.10
2012,06,28,16,07,15.10
2012,06,28,16,08,15.00
2012,06,28,16,09,15.00
2012,06,28,16,10,15.00
2012,06,28,16,11,15.00
2012,06,28,16,12,15.00
2012,06,28,16,13,15.00
2012,06,28,16,14,15.00
2012,06,28,16,15,15.00
2012,06,28,16,16,15.00
2012,06,28,16,17,15.00
2012,06,28,16,18,15.00
2012,06,28,16,19,15.00
2012,06,28,16,20,15.00
2012,06,28,16,21,15.00
2012,06,28,16,22,15.00
2012,06,28,16,23,15.00
2012,06,28,16,24,15.00
2012,06,28,16,25,15.00
2012,06,28,16,26,15.00
2012,06,28,16,27,15.00
2012,06,28,16,28,15.00
2012,06,28,16,29,15.00
2012,06,28,16,30,15.00
2012,06,28,16,31,15.00
2012,06,28,16,32,15.00
2012,06,28,16,33,15.00
2012,06,28,16,34,15.00
2012,06,28,16,35,15.00
2012,06,28,16,36,15.00
2012,06,28,16,37,15.00
2012,06,28,16,38,15.00
2012,06,28,16,39,15.00
2012,06,28,16,40,15.00
2012,06,28,16,41,15.00
2012,06,28,16,42,15.00
2012,06,28,16,43,15.00
2012,06,28,16,44,15.00
2012,06,28,16,45,15.00
2012,06,28,16,46,15.00
2012,06,28,16,47,15.00
2012,06,28,16,48,15.00
2012,06,28,16,49,15.00
2012,06,28,16,50,15.00
2012,06,28,16,51,15.00
2012,06,28,16,52,14.90
2012,06,28,16,53,15.00
2012,06,28,16,54,15.00
2012,06,28,16,55,15.00
2012,06,28,16,56,15.00
2012,06,28,16,57,15.00
2012,06,28,16,58,15.00
2012,06,28,16,59,15.00
2012,06,28,17,00,15.00
2012,06,28,17,01,15.00
2012,06,28,17,02,15.00
2012,06,28,17,03,15.00
2012,06,28,17,04,15.00
2012,06,28,17,05,15.00
2012,06,28,17,06,15.00
2012,06,28,17,07,15.00
2012,06,28,17,08,15.00
2012,06,28,17,09,15.00
2012,06,28,17,10,15.00
2012,06,28,17,11,15.00
2012,06,28,17,12,15.00
2012,06,28,17,13,15.00
2012,06,28,17,14,15.00
2012,06,28,17,15,15.00
2012,06,28,17,16,15.00
2012,06,28,17,17,15.00
2012,06,28,17,18,14.90
2012,06,28,17,19,14.80
2012,06,28,17,20,14.80